ONEWEB-0052, 45156

Orbit data source: Space-Track

ONEWEB-0052, 45156 is a payload satellite owned by One Web (UK) in LEO that was launched on Thu, 06 Feb 2020 UTC via a SOYUZ-2-1B launch vehicle from the Tyuratam Missile And Space Complex (TTMTR). Payload-class satellites include a variety of spacecraft equipped with specific instruments for various scientific and technological missions. These include communications satellites like Starlink; space stations such as the ISS; scientific satellites like the Hubble; Earth observation satellites from companies like Planet Labs, Umbra, and HawkEye 360; GPS; miniature CubeSats for education and research; and military/defense satellites.

Loading next visibility...
Identifier
45156, 2020-008AB
Orbit
LEO
Country
Flag of UKUK
Related business
Manufacturer
One Web
Mission
Operational Commercial Communications
Bus & Motor
ARROW, Unknown motor
Mass
148 kg wet, ~140 kg dry
Launch date (UTC)
2020-02-06 (6 years ago)
Launch vehicle
SOYUZ-2-1B
Launch site
Tyuratam Missile And Space Complex (TTMTR)
Object type
Payload
Rocket body
Debris
Shape & HBR
Trap Box + 2 Pan, 6.7 m
Radar Cross Section
3.464 m², Large (>1 m²)

Expand to show TLE details & history
Last TLE update: 2 days ago

TLE from 2 days ago
0 ONEWEB-0052
1 45156U 20008AB  26171.37472419  .00000511  00000-0  14275-2 0  9993
2 45156  87.8835  35.6278 0002233  80.1450 279.9929 13.10304676308358
Epoch: 2026-06-20T08:59Z
TLE epoch observation values (Epoch: 2026-06-20T08:59:36.170Z)
Latitude
-0.00003°
Longitude
-7.86317°
Altitude
1,224.574 km
Speed
7.242 km/s
True Right ascension
02h 22m 30s
True Declination
0° 00' 00"
Sunlit
Object was in daylight at epoch
Visualization orbit readout
Latitude
Unknown
Longitude
Unknown
Altitude
Unknown
Speed
Unknown
Apparent Right ascension
Unknown
Apparent Declination
Unknown
Sunlit
N/A
Visualization observer readout
Local Sidereal Time
21:39:05
Azimuth
Unknown
Elevation
Unknown
Doppler factor
Unknown
Orbital elements
Apogee altitude
1,220.797 km
Perigee altitude
1,217.404 km
Semi-major axis
7,597.238 km
Eccentricity
0.00022
Inclination
87.8835°
RAAN
35.6278°
Arg. of periapsis
80.145°
True anomaly
279.9677°
Mean anomaly
279.9929°
Eccentric anomaly
279.9803°
Mean motion
3.27763 °/min
Orbital period
109.84 mins
BSTAR
0.0014275
Loading maneuver chart data...
Computing Atmospheric mass density...
Loading historical data...
Loading historical data...
Loading historical data...
Loading historical data...
Loading historical data...
Loading historical data...
Loading historical data...

Documentation

Showing up to 5 results
|